Regional Weather Roundup
Issued by NWS

Home | Current Version | Previous Version | Text Only | Print | Product List | Glossary Off
Versions: 1 2 3 4 5 6 7 8 9 10 11 12 13 14 15 16 17 18 19 20 21 22 23 24 25 26 27 28 29 30 31 32 33 34 35 36 37 38 39 40 41 42 43 44 45 46 47 48 49 50

000
ASUS43 KMKX 191800
RWRWI

WISCONSIN REGIONAL WEATHER ROUNDUP
NATIONAL WEATHER SERVICE MILWAUKEE/SULLIVAN WI
100 PM CDT THU OCT 19 2017

NOTE: "FAIR" INDICATES FEW OR NO CLOUDS BELOW 12,000 FEET WITH NO
SIGNIFICANT WEATHER AND/OR OBSTRUCTIONS TO VISIBILITY.

WIZ001-002-006>008-014>016-023>028-191900-
NORTHWEST WISCONSIN

CITY           SKY/WX    TMP DP  RH WIND       PRES   REMARKS
SUPERIOR ARPT  FAIR      64  32  30 SW8       30.01F
ASHLAND        FAIR      65  29  25 SW12      30.03F
6HR MIN TEMP:  43; 6HR MAX TEMP:  65;

HAYWARD        FAIR      64  27  24 SW12      30.05F
6HR MIN TEMP:  35; 6HR MAX TEMP:  64;

SIREN          FAIR      66  28  24 S10       30.05F
CUMBERLAND     FAIR      63  28  27 SW7       30.07F
RICE LAKE      FAIR      64  27  24 S6        30.09F
CHETEK         FAIR      64  33  30 S5        30.09F
LADYSMITH      FAIR      64  32  30 SW7       30.11S
EAU CLAIRE     NOT AVBL
MENOMONIE      FAIR      66  33  29 S6        30.09F
NEW RICHMOND   FAIR      65  28  24 S10       30.06F
OSCEOLA        FAIR      65  32  28 SE9       30.08F
$$

WIZ003>005-009-010-017-018-191900-
NORTH CENTRAL WISCONSIN

CITY           SKY/WX    TMP DP  RH WIND       PRES   REMARKS
MANITOWISH WTR FAIR      59  29  31 SW9       30.06F
ARBOR VITAE    FAIR      62  29  28 W9G16     30.07S
WOODRUFF       FAIR      62  29  28 W9G16     30.07S
RHINELANDER    FAIR      62  27  26 W15       30.09S
6HR MIN TEMP:  36; 6HR MAX TEMP:  62;

EAGLE RIVER    FAIR      59  22  24 W12G22    30.07R
LAND O LAKES   FAIR      60  23  23 W10G18    30.07S
PHILLIPS       FAIR      60  29  31 SW9       30.08F
TOMAHAWK       FAIR      62  25  25 W6        30.09S
MEDFORD        FAIR      61  28  28 SW9       30.10F
MERRILL        FAIR      63  28  26 W14       30.10S
$$

WIZ029-030-035-036-043>047-191900-
CENTRAL WISCONSIN

CITY           SKY/WX    TMP DP  RH WIND       PRES   REMARKS
WAUSAU         FAIR      63  28  26 W9        30.10S
6HR MIN TEMP:  42; 6HR MAX TEMP:  63;

MOSINEE        MOSUNNY   63  28  27 W14       30.13F
MARSHFIELD     FAIR      65  26  23 W7        30.10F
6HR MIN TEMP:  42; 6HR MAX TEMP:  65;

STEVENS POINT  FAIR      61  28  28 SW8       30.13F
WAUPACA        FAIR      66  27  22 SW12      30.13F
WAUTOMA        FAIR      67  30  25 W12       30.13F
6HR MIN TEMP:  38; 6HR MAX TEMP:  67;

WISC RAPIDS    FAIR      65  35  33 SW8       30.12F
6HR MIN TEMP:  36; 6HR MAX TEMP:  65;

CAMP DOUGLAS   NOT AVBL
$$

WIZ011>013-019>022-031-037>040-048>050-191900-
NORTHEAST WISCONSIN

CITY           SKY/WX    TMP DP  RH WIND       PRES   REMARKS
ANTIGO         FAIR      60  32  34 W13G20    30.10S
SHAWANO        FAIR      66  28  24 W10       30.10F
OCONTO         FAIR      62  30  29 W15       30.09S
STURGEON BAY   FAIR      61  30  31 W17       30.09F
6HR MIN TEMP:  48; 6HR MAX TEMP:  62;

GREEN BAY      FAIR      65  30  27 W9        30.11F
6HR MIN TEMP:  46; 6HR MAX TEMP:  65;

MANITOWOC      FAIR      64  29  26 W13       30.12F
6HR MIN TEMP:  48; 6HR MAX TEMP:  64;

APPLETON       MOSUNNY   63  27  25 SW9       30.11F
CLINTONVILLE   FAIR      66  25  20 W8        30.11F
OSHKOSH        FAIR      64  30  27 W6        30.13F
6HR MIN TEMP:  46; 6HR MAX TEMP:  64;

$$

WIZ032>034-041-042-053>061-191900-
SOUTHWEST WISCONSIN

CITY           SKY/WX    TMP DP  RH WIND       PRES   REMARKS
LA CROSSE      FAIR      66  38  35 S12       30.11F
6HR MIN TEMP:  44; 6HR MAX TEMP:  66;

SPARTA         FAIR      67  30  25 S3        30.12F
VIROQUA        FAIR      65  32  29 SE10      30.15F
BOSCOBEL       FAIR      70  27  20 VRB3      30.15F
6HR MIN TEMP:  37; 6HR MAX TEMP:  70;

PRAIRIE DU CHI FAIR      65  34  31 SW3       30.14F
PLATTEVILLE    FAIR      66  31  27 SE5       30.17F
$$

WIZ056-057-062-063-064-067-068-191900-
SOUTH CENTRAL WISCONSIN

CITY           SKY/WX    TMP DP  RH WIND       PRES   REMARKS
REEDSBURG      FAIR      65  30  27 CALM      30.14F
BARABOO/DELLS  FAIR      65  29  26 CALM      30.15F
LONE ROCK      FAIR      66  34  30 E3        30.15F
6HR MIN TEMP:  38; 6HR MAX TEMP:  67;

MINERAL POINT  FAIR      68  28  22 SE5       30.17F
MADISON        PTSUNNY   64  34  32 S5        30.16F
6HR MIN TEMP:  42; 6HR MAX TEMP:  66;

MIDDLETON      FAIR      67  26  22 CALM      30.17F
WATERTOWN      FAIR      65  30  26 CALM      30.16F
MONROE         FAIR      64  27  24 CALM      30.17F
JANESVILLE     MOSUNNY   68  27  21 VRB3      30.17F
$$

WIZ051-052-058>065-066-070>072-191900-
SOUTHEAST WISCONSIN

CITY           SKY/WX    TMP DP  RH WIND       PRES   REMARKS
MILWAUKEE      PTSUNNY   67  29  24 VRB5      30.18S
6HR MIN TEMP:  53; 6HR MAX TEMP:  67;

WAUKESHA       SUNNY     63  28  27 W7        30.18S
MILWAUKEE/TIMM SUNNY     66  19  16 NW9       30.18S
RACINE         FAIR      65  25  22 SE7       30.19F
6HR MIN TEMP:  49; 6HR MAX TEMP:  66;

BURLINGTON     FAIR      65  31  27 CALM      30.18F
KENOSHA        FAIR      65  23  20 CALM      30.18F
6HR MIN TEMP:  44; 6HR MAX TEMP:  67;

FOND DU LAC    FAIR      65  26  23 W9        30.14F
6HR MIN TEMP:  46; 6HR MAX TEMP:  66;

SHEBOYGAN      FAIR      64  30  27 W8G17     30.14F
6HR MIN TEMP:  46; 6HR MAX TEMP:  65;

WEST BEND      FAIR      63  23  22 NW8       30.16F
JUNEAU         FAIR      64  29  27 CALM      30.17F
$$

LSZ147-162-191900-
LAKE SUPERIOR

STATION/POSITION TIME  TEMP    WIND        PRES    WAVE
                       AIR SEA DIR/SP/G            HT/PER
                 (UTC) (F)     (DEG/KT/KT) (MB)    (FT/S)
W MID LAKE BUOY  1650   53 52              1015.0R   6/ 6
DEVILS ISLAND    1700   54     230/ 18/ 20 1016.4R
SAXON HARBOR     1740   64     200/  7/ 12 1016.3F
$$

LMZ867-665-643>646-191900-
LAKE MICHIGAN

STATION/POSITION TIME  TEMP    WIND        PRES    WAVE
                       AIR SEA DIR/SP/G            HT/PER
                 (UTC) (F)     (DEG/KT/KT) (MB)    (FT/S)
S GREEN BAY BUOY 1730   59 58  240/ 16/ 17 1018.9S
N MID LAKE BUOY  1650   56 58  250/ 19/ 23 1017.7R   5/ 6
NORTHPORT PIER   1740   62     210/  3/ 13 1017.6F
KEWAUNEE LAKESHO 1730   62     270/ 11/ 15 1018.7F
SHEBOYGAN LAKESH 1700   61     290/ 10/ 12 1020.7R
PORT WASHINGTON  1740   65     280/  8/ 10 1022.0S
ATWATER BUOY     1609   59 53  150/  4/  6 1021.7R
MILWAUKEE LAKESH 1730   59     110/  8/  9   N/A
S MID LAKE BUOY  1650   58 61  310/  8/  8 1022.6R   2/ 5
KENOSHA   LAKESH 1700   61     150/  7/  8 1022.0
$$

TC  - TEMPERATURE IN CELSIUS
VSB - VISIBILITY IN STATUTE MILES
WCI - WIND CHILL INDEX
HX  - HEAT INDEX





USA.gov is the U.S. government's official web portal to all federal, state and local government web resources and services.